SCP
1 2 2 2 2 3 4 4 4 3 2 2 2 2 2 2 2 1 1 1 1 2 2 1 1 1 1 1 1 1 1 1 1 1 0 0 0 0 0 1 1 0 1
1 2 2 3 2 3 4 4 4 4 3 2 2 2 2 2 2 1 1 1 1 1 1 1 1 2 1 1 1 1 1 1 1 1 1 0 0 0 0 1 1 0 1
2 2 3 3 3 3 4 4 5 5 4 3 2 2 2 2 2 1 1 1 1 1 1 1 1 2 2 1 1 1 1 1 1 1 1 0 0 0 0 1 1 1 1
2 3 3 3 4 4 4 4 5 5 4 3 3 2 2 2 2 2 1 1 1 1 1 1 1 1 2 2 1 1 1 1 1 1 0 0 0 0 0 0 1 1 1
3 3 3 4 4 4 4 4 4 5 5 4 3 2 2 2 2 2 1 1 1 1 1 1 1 1 2 2 2 1 1 1 1 1 0 0 0 0 1 1 1 1 1
3 4 4 4 5 5 4 4 4 4 4 4 3 3 2 2 2 2 1 1 1 1 1 1 1 1 2 2 2 2 2 2 1 1 0 0 0 1 1 1 1 1 1
4 4 4 4 5 5 5 4 4 4 4 4 3 3 2 2 2 2 2 1 1 1 1 1 1 1 1 2 2 2 2 1 1 0 0 0 0 1 1 1 1 1 1
4 5 5 4 5 5 5 4 4 4 4 3 3 3 2 2 2 2 2 2 2 1 1 1 1 1 1 2 2 2 2 1 1 0 0 0 0 1 1 0 0 1 1
4 5 5 5 5 5 5 5 4 4 4 3 3 3 3 3 3 2 2 2 2 2 1 1 1 1 1 2 2 2 2 1 1 0 0 0 1 1 1 0 0 0 1
3 4 4 4 5 5 4 4 4 4 4 4 3 3 3 3 3 3 3 2 2 2 2 1 1 1 1 2 2 1 1 1 0 0 0 0 1 1 1 0 0 0 0
3 3 4 4 4 5 4 4 5 5 5 4 4 3 3 4 4 3 3 2 2 2 2 2 1 1 1 1 1 1 1 1 0 0 0 1 1 1 1 0 0 0 0
2 3 3 3 4 5 5 5 5 5 5 5 5 4 4 4 4 3 3 2 2 2 2 2 1 1 1 1 1 1 1 1 0 0 0 1 1 1 1 1 0 0 0
2 2 3 3 4 5 6 6 6 5 5 5 5 5 4 4 4 3 3 2 2 2 2 1 1 1 1 1 1 1 1 1 1 0 0 1 1 1 1 1 1 1 0
2 2 2 3 3 5 7 7 7 6 6 6 6 5 5 4 3 3 2 2 1 1 1 1 1 1 1 1 1 1 1 1 1 0 0 1 1 1 1 1 1 1 1
2 2 2 2 3 4 6 7 7 6 6 6 6 6 5 4 4 3 2 1 1 0 0 0 1 1 1 1 1 1 1 1 1 0 0 0 1 1 1 1 1 1 1
3 2 2 2 2 3 5 6 6 6 6 6 6 6 6 5 4 3 2 1 0 0 0 0 1 1 1 1 1 1 1 1 1 0 0 0 1 1 1 1 1 1 1
3 2 2 1 1 2 3 4 5 5 5 5 5 6 6 4 3 2 1 0 0 0 0 0 0 1 1 2 2 1 1 1 1 1 0 0 0 1 1 1 1 1 1
3 2 2 1 1 2 2 3 4 5 5 5 5 6 5 4 2 1 0 0 0 0 0 0 0 0 1 1 2 2 2 2 1 1 0 0 0 0 0 1 1 1 1
3 3 2 2 1 1 2 2 3 4 5 5 5 6 5 3 1 0 0 0 0 0 0 0 0 0 0 1 1 2 2 2 2 1 1 0 0 0 0 0 1 1 1
3 3 3 2 1 1 1 2 3 4 4 5 5 5 4 2 1 0 0 0 0 0 0 0 0 0 0 0 1 1 1 2 2 1 1 0 0 0 0 0 0 0 1
2 2 3 2 1 1 1 2 2 4 5 5 5 4 3 1 0 0 0 0 0 0 0 0 0 0 0 0 0 1 1 1 1 1 1 1 0 0 0 0 0 0 0
1 1 2 2 2 1 1 2 3 4 5 5 5 4 2 1 0 0 0 0 0 0 0 0 0 0 0 0 0 0 0 1 1 1 1 1 0 0 0 0 0 0 0
0 1 1 2 2 1 1 2 3 4 5 5 5 3 2 0 0 0 0 0 0 0 0 0 0 0 0 0 0 0 0 0 0 1 1 1 0 0 0 0 0 0 0
0 0 1 1 2 2 2 2 3 4 4 5 5 3 1 0 0 0 0 0 0 0 0 0 0 0 0 0 0 0 0 0 0 0 0 0 0 0 0 0 0 0 0
0 0 0 1 2 2 2 2 3 4 4 4 4 3 2 0 0 0 0 0 0 0 0 0 0 0 0 0 0 0 0 0 0 0 0 0 0 0 0 0 0 0 0
0 0 0 1 2 2 2 2 3 4 4 4 4 3 2 0 0 0 0 0 0 0 0 0 0 0 0 0 0 0 0 0 0 0 0 0 0 0 0 0 0 0 0
Wind_Speed
2 2 4 5 6 7 7 8 8 8 8 8 9 9 8 8 8 8 8 8 7 8 8 8 8 9 9 10 9 9 9 9 9 9 9 9 8 8 7 8 7 4 8
3 3 5 6 6 7 8 8 9 8 8 8 8 8 8 7 7 7 7 7 7 8 8 8 8 8 8 8 9 9 9 9 9 9 9 7 8 7 7 6 6 4 6
4 3 4 7 7 8 8 8 8 8 8 7 7 7 7 7 7 7 7 6 7 7 7 7 7 8 8 7 7 7 8 8 8 9 8 4 4 6 6 5 5 5 5
4 3 3 7 7 8 8 8 7 7 7 7 7 7 7 6 6 7 6 6 5 5 6 7 6 7 7 7 6 6 7 7 8 8 4 4 3 5 5 4 5 5 4
4 3 4 7 7 7 7 7 6 6 6 6 6 6 6 6 6 6 6 5 5 5 5 6 6 6 6 6 6 6 6 7 7 6 4 3 3 4 4 4 4 4 3
4 3 3 7 7 7 7 6 6 6 6 6 6 5 6 6 5 5 5 5 4 4 4 4 5 5 5 5 5 5 5 6 6 4 3 3 2 3 3 3 2 2 2
4 3 3 6 7 6 6 6 5 5 5 5 5 5 5 5 5 4 4 4 4 3 3 3 3 4 4 4 4 4 5 5 4 3 2 2 2 3 2 2 1 1 1
4 3 3 5 6 6 5 5 5 4 5 5 5 4 4 4 4 4 4 3 3 2 2 2 2 3 3 3 3 4 4 4 3 2 1 1 3 3 2 2 2 1 1
4 3 2 2 3 4 4 4 4 4 4 4 4 4 4 4 4 4 4 3 2 2 1 1 1 2 2 2 2 3 4 4 3 1 1 1 2 3 3 3 3 2 2
3 3 2 2 3 2 2 3 4 4 4 4 4 4 5 4 4 4 4 3 3 2 2 1 1 1 1 2 1 2 3 3 2 1 1 2 3 4 4 4 4 4 4
2 1 1 2 2 2 2 3 3 3 3 4 3 4 4 2 2 2 3 3 3 3 2 2 1 1 2 2 1 2 2 1 0 1 1 3 4 5 5 5 5 5 6
3 2 1 2 2 2 2 2 2 2 2 2 2 2 2 2 1 2 3 4 4 4 3 3 3 3 2 1 1 2 1 0 0 1 2 5 6 6 6 6 6 6 6
3 2 2 2 2 2 2 1 1 1 1 1 2 2 1 1 1 2 1 2 3 3 2 2 2 1 1 1 0 0 0 1 1 1 2 5 7 7 7 7 7 6 6
2 3 2 2 2 2 2 1 1 1 1 1 1 1 1 1 1 1 1 1 1 1 2 1 1 1 1 1 1 1 1 1 1 1 2 6 7 7 8 8 7 7 7
2 2 2 2 2 2 2 1 1 1 1 1 1 1 1 1 1 0 0 1 1 1 1 1 1 1 1 1 1 1 2 2 2 2 2 5 6 7 8 8 8 8 8
3 2 2 2 3 2 2 2 2 1 1 1 1 1 1 1 1 1 0 0 1 1 1 1 1 1 1 1 2 2 2 3 2 3 2 3 5 6 7 8 8 8 8
2 2 2 2 2 3 2 2 2 2 2 1 1 1 1 1 2 1 1 0 0 1 1 1 1 1 1 1 2 2 2 3 2 3 2 2 2 4 6 7 8 9 9
2 1 1 1 1 2 2 2 1 1 2 2 1 1 2 2 2 1 1 1 0 0 0 0 0 1 1 1 2 2 2 2 3 2 2 2 2 2 4 6 8 9 9
2 2 1 1 1 1 1 1 1 1 1 1 1 1 2 2 2 1 1 1 0 0 0 1 1 1 1 2 2 2 2 2 3 2 2 2 2 2 2 4 7 8 9
1 1 1 1 0 1 1 1 1 0 1 1 1 1 2 2 2 1 1 1 0 0 0 0 1 1 1 2 2 2 3 3 2 2 2 2 2 2 2 2 3 5 7
1 1 1 1 0 1 1 1 1 1 1 1 1 1 1 2 2 2 1 1 1 1 1 1 0 0 1 1 1 2 2 2 2 1 1 1 2 2 2 2 2 2 3
1 1 1 1 1 1 1 1 1 1 1 1 1 1 1 1 2 2 2 2 2 1 1 1 1 0 1 1 0 1 2 3 2 1 1 1 2 1 2 2 2 2 2
1 2 2 2 1 1 1 1 1 1 1 0 1 1 1 2 2 2 2 2 2 2 2 2 2 2 1 1 1 1 1 2 3 2 2 2 1 2 2 2 2 3 3
2 1 1 1 1 1 1 2 2 2 2 2 1 1 2 1 2 2 2 2 2 2 2 2 2 2 2 2 1 1 2 2 1 3 2 2 2 2 2 3 3 3 3
1 0 1 0 0 0 1 2 3 2 2 1 1 1 2 1 2 2 2 2 2 2 2 2 2 2 2 3 2 1 1 2 2 2 4 3 2 2 2 3 3 3 3
0 0 1 0 0 0 1 1 2 3 2 1 2 2 2 1 1 2 2 2 2 2 2 3 3 3 3 3 2 2 2 2 2 2 3 3 4 3 3 2 3 3 2
Wind_Direction
194 205 166 134 127 121 115 110 107 103 102 102 100 99 97 92 91 91 93 97 96 93 94 90 86 86 84 79 77 75 72 72 74 74 73 75 77 82 81 75 78 77 85
164 178 147 133 126 121 115 109 102 100 102 104 104 99 98 97 93 90 90 94 95 96 93 89 86 85 85 83 79 76 74 72 71 69 67 66 68 74 79 79 79 82 85
137 147 141 133 127 120 113 108 104 100 97 98 101 100 98 98 96 91 89 90 91 90 89 87 86 86 86 83 81 80 77 75 71 67 59 46 53 68 71 75 75 80 83
130 131 137 133 127 122 116 110 107 103 98 95 98 100 100 97 91 87 85 86 86 88 88 87 87 87 86 83 83 82 78 74 71 64 50 38 35 63 69 72 77 76 77
117 117 139 131 128 123 119 115 111 105 100 96 95 97 97 95 91 85 82 83 82 85 88 87 86 89 88 86 84 85 81 75 68 62 48 35 25 53 64 66 74 75 71
114 108 133 130 129 123 120 118 114 109 104 101 97 95 93 91 89 87 82 82 84 90 91 89 87 89 92 89 87 86 84 78 68 59 46 30 17 35 53 57 63 77 69
120 107 121 128 128 130 128 124 118 110 105 101 98 94 92 89 83 82 85 80 80 95 102 98 92 93 94 92 87 82 79 79 72 62 43 19 354 8 26 36 37 41 71
118 103 101 117 122 125 124 122 118 113 109 102 97 90 86 81 77 73 76 76 72 74 99 105 94 94 101 95 87 81 74 73 72 57 34 359 337 349 352 342 336 328 288
105 101 91 96 103 110 115 117 113 108 103 101 93 82 75 68 63 64 57 52 52 53 73 93 101 100 96 89 84 71 67 62 70 46 1 329 316 319 323 323 314 299 292
97 103 103 94 91 90 95 102 105 104 92 86 79 68 63 61 56 53 44 36 35 32 33 54 65 75 82 73 66 66 57 54 58 23 330 299 303 300 304 306 301 292 286
114 104 111 113 102 96 94 81 84 90 85 80 72 64 62 58 54 44 31 32 31 26 24 35 37 34 38 41 34 43 48 56 19 313 286 292 291 289 287 290 291 288 282
184 182 165 151 132 115 100 88 84 78 78 78 74 73 66 57 45 44 31 31 28 25 21 26 32 41 31 19 5 26 34 334 303 280 281 288 286 286 285 284 286 288 284
190 186 188 184 157 137 125 113 99 87 81 80 82 83 75 67 54 45 39 24 17 21 22 22 25 27 25 4 336 311 293 286 271 275 284 289 284 283 281 281 284 286 289
180 204 196 190 170 159 137 130 130 121 114 115 111 106 103 100 77 53 42 17 16 7 9 18 17 12 4 341 305 282 279 266 263 270 276 289 285 281 282 282 280 283 288
189 217 217 187 180 172 155 159 147 159 163 164 157 145 132 139 136 92 52 30 5 5 5 354 4 0 352 337 320 298 279 269 266 266 279 290 291 287 285 287 285 287 287
207 215 221 207 185 170 168 173 177 170 165 157 161 170 149 152 157 148 130 18 350 353 352 342 319 305 296 312 317 305 288 278 270 271 272 285 296 296 290 292 293 292 291
205 210 215 211 180 173 180 187 172 171 163 168 180 182 163 157 159 151 156 201 296 329 348 347 337 318 304 317 305 298 290 279 275 275 279 277 289 305 302 296 295 293 294
179 197 220 203 174 186 187 182 176 172 171 180 182 181 173 167 155 147 169 211 267 322 351 318 327 327 295 286 284 285 286 281 274 265 262 269 273 286 299 305 301 296 294
185 188 184 185 176 178 183 172 171 171 184 195 186 181 181 171 158 158 185 203 202 342 337 305 355 313 288 293 285 284 285 277 271 270 262 265 264 271 277 310 314 309 304
167 171 145 131 155 145 144 121 110 145 198 205 200 197 181 174 168 165 182 194 171 164 307 295 286 314 290 285 301 304 291 279 266 254 251 259 264 268 275 298 307 314 316
116 134 150 137 159 126 132 151 180 222 221 220 222 212 200 184 178 177 191 192 189 201 240 248 260 298 316 312 336 322 305 280 259 256 259 259 267 275 288 294 296 296 306
182 205 197 179 166 163 178 184 196 207 220 216 214 210 209 196 195 198 194 200 204 205 232 231 184 189 288 315 118 340 324 323 307 296 282 267 277 303 306 318 309 301 298
227 229 212 202 187 178 159 124 76 55 11 351 228 231 235 222 210 216 211 202 204 199 216 228 202 188 224 274 226 178 209 261 299 285 272 278 299 302 299 297 299 307 303
239 253 242 214 184 173 152 166 166 188 217 239 241 246 256 237 224 215 214 213 209 207 217 231 218 207 198 238 266 242 228 217 248 297 287 280 286 289 290 300 298 295 293
244 266 280 243 170 156 172 190 188 206 222 248 258 264 268 257 241 230 221 215 223 220 219 227 229 218 210 219 226 239 255 255 233 238 275 290 294 275 277 272 273 279 285
170 156 232 227 258 207 186 203 201 210 215 241 266 255 271 276 261 246 232 220 224 227 225 227 222 220 223 222 229 227 224 230 231 232 254 278 284 285 286 268 269 276 286